Location: Arroyo de Valdeoliva
(40.1604°N, 4.9878°W)
Time: 03:11:22
(UTC+00:00)

Cosmos 372 Rocket - Pass Details

Date: 11 December 2025
Orbit: 734 x 761 km, 74.1° (Epoch: 13 January)

Event Time Altitude Azimuth Distance (km) Brightness Sun altitude
Rises 18:32:14 0° 198° (SSW) 3,191 7.7 -18.1°
Reaches altitude 10° 18:34:36 10° 199° (SSW) 2,267 6.9 -18.5°
Maximum altitude 18:39:45 87° 289° (WNW) 754 3.9 -19.5°
Enters shadow 18:43:22 20° 18° (NNE) 1,688 5.5 -20.1°
